Location: Copeville
(33.0796°N, 96.4155°W)
Time: 22:32:14
(UTC+00:00)

NOAA 19 - Pass Details

Date: 06 April 2023
Orbit: 840 x 859 km, 99.1° (Epoch: 28 May)

Event Time Altitude Azimuth Distance (km) Brightness Sun altitude
Exits shadow 03:48:13 - 234° (SW) 2,528 7.8 -35.3°
Reaches altitude 10° 03:48:33 10° 237° (WSW) 2,462 7.8 -35.3°
Maximum altitude 03:51:15 14° 267° (W) 2,200 7.8 -35.8°
Drops below altitude 10° 03:53:57 10° 297° (WNW) 2,464 8.3 -36.2°
Sets 03:57:37 0° 322° (NW) 3,401 9.3 -36.8°
